AirNav   Duncan Aviation - Near you to keep you flying
 
 916 users online  

FD51 Summerland Key Cove Airport
Summerland Key, Florida, USA

GOING TO SUMMERLAND KEY?


FAA INFORMATION EFFECTIVE 08 SEPTEMBER 2022

Location

FAA Identifier: FD51
Lat/Long: 24-39-31.5160N 081-26-29.2970W
24-39.525267N 081-26.488283W
24.6587544,-81.4414714
(estimated)
Elevation: 4 ft. / 1 m (estimated)
Variation: 02W (1985)
Time zone: UTC -4 (UTC -5 during Standard Time)
Zip code: 33042

Airport Operations

Airport use: Private use. Permission required prior to landing
Activation date: 10/1957
Control tower: no
ARTCC: MIAMI CENTER
FSS: MIAMI FLIGHT SERVICE STATION
Attendance: DAYLIGHT HOURS
Wind indicator: yes
Segmented circle: no
Landing fee: yes

Airport Communications

CTAF: 122.9
WX ASOS at EYW (18 nm W): PHONE 305-292-4046

Nearby radio navigation aids

VOR radial/distance  VOR name  Freq  Var
EYWr076/20.1KEY WEST VORTAC113.5001E

 
NDB name  Hdg/Dist  Freq  Var  ID
MARATHON264/19.126004WMTH -- - ....
FISH HOOK075/19.933204WFIS ..-. .. ...

Airport Services

Parking: tiedowns
Airframe service: NONE
Powerplant service: NONE

Runway Information

Runway 12/30

Dimensions: 2550 x 20 ft. / 777 x 6 m
Surface: asphalt
RUNWAY 12  RUNWAY 30
Traffic pattern: leftleft
Displaced threshold: 359 ft.290 ft.
Obstructions: 40 ft. pline, 350 ft. from runway25 ft. trees, 300 ft. from runway

Airport Ownership and Management from official FAA records

Ownership: Privately-owned
Owner: SUMMERLAND KEY COVE ARPT CO
260 WEST SHORE DRIVE
SUMMERLAND KEY, FL 33042
Phone 305-814-6465
Manager: MATT STETTNER
260 WEST SHORE DRIVE
SUMMERLAND KEY, FL 33042
Phone 305-814-6465

Airport Operational Statistics

Aircraft based on the field: 33
Single engine airplanes: 26
Multi engine airplanes: 4
Jet airplanes: 2
Helicopters: 1
    

Additional Remarks

FOR CD CTC KEY WEST APCH, WHEN APCH CLSD CNCT MIAMI CENTER AT 305-716-1731

Instrument Procedures

There are no published instrument procedures at FD51.

Some nearby airports with instrument procedures:

KNQX - Key West Naval Air Station (Boca Chica Field) Airport (14 nm W)
KEYW - Key West International Airport (18 nm W)
KMTH - The Florida Keys Marathon International Airport (22 nm E)
X51 - Miami Homestead General Aviation Airport (70 nm NE)
07FA - Ocean Reef Club Airport (75 nm NE)
 
Loc | Ops | Rwys | IFR | FBO | Links
Com | Nav | Svcs | Stats | Notes

Reliance Aviation
AirBoss

 
Area around FD51 (Summerland Key Cove Airport)
 
Road maps at: MapQuest Bing Google
 
Aerial photo
WARNING: Photo may not be current or correct
Aerial photo of FD51 (Summerland Key Cove Airport)
Do you have a better or more recent aerial photo of Summerland Key Cove Airport that you would like to share? If so, please send us your photo.

 
Sectional chart

 
Airport distance calculator
Flying to Summerland Key Cove Airport? Find the distance to fly.

From to FD51

Sunrise and sunset
Times for 02-Oct-2022
 Local
(UTC-4)
 Zulu
(UTC)
Morning civil twilight06:5610:56
Sunrise07:1911:19
Sunset19:1123:11
Evening civil twilight19:3423:34

Current date and time
Zulu (UTC)  03-Oct-2022 01:17:44
Local (UTC-4)  02-Oct-2022 21:17:44
 
METAR
KNQX 
13nm SW 
030053Z AUTO 35005KT BKN070 29/19 A2994 RMK AO2 SLP136 T02890189 $
KEYW 
18nm W 
030053Z 01006KT 10SM FEW042 OVC060 27/20 A2994 RMK AO2 SLP138 T02670200 PNO $
KMTH 
22nm E 
030053Z AUTO 31008KT 10SM FEW060 27/19 A2993 RMK AO2 SLP133 T02670189
TAF
KEYW 
18nm W 
021737Z 0218/0318 34011G17KT P6SM FEW040 SCT070 FM022200 33007KT P6SM FEW040
NOTAMs
Click for the latest NOTAMs
NOTAMs are issued by the DoD/FAA and will open in a separate window not controlled by AirNav.

 

 
 

Would you like to see your business listed on this page?

 If your business provides an interesting product or service to pilots, flight crews, aircraft, or users of the Summerland Key Cove Airport, you should consider listing it here.  To start the listing process, click on the button below
 
Add a business
 

Other Pages about Summerland Key Cove Airport

Update a link
 
Copyright © AirNav, LLC. All rights reserved. Privacy Policy  Contact